WZZ3XS EYVI-EGGW

Flight info

Callsign WZZ3XS
Flight time N/A
Altitude 34000
Route UPASI1A/01 UPASI DCT TUNGA DCT SUWGI L29 GRUDA DCT BINKA DCT LEGSA/N0451F360 DCT BERIM DCT VALKO DCT NOGRO M40 RINIS
Aircraft A321/M-SDE3FGHIRWY/LB1

Departure

Time N/A
Airport Vilnius International Airport (EYVI)

Arrival

Time 2026-04-27 21:14
Airport London Luton Airport (EGGW)
Time Latitude Longitude Altitude Speed Heading
2026-04-27 20:11 53.15215 8.48698 38228 ft 422 kts 253°
2026-04-27 20:11 53.13265 8.39328 38235 ft 425 kts 253°
2026-04-27 20:12 53.11652 8.31612 38231 ft 425 kts 252°
2026-04-27 20:12 53.09366 8.20726 38241 ft 425 kts 253°
2026-04-27 20:13 53.07436 8.11586 38247 ft 425 kts 253°
2026-04-27 20:13 53.05466 8.02295 38239 ft 424 kts 253°
2026-04-27 20:14 53.03496 7.93040 38231 ft 423 kts 252°
2026-04-27 20:14 53.01518 7.83795 38224 ft 424 kts 252°
2026-04-27 20:15 52.99532 7.74557 38231 ft 426 kts 252°
2026-04-27 20:15 52.97526 7.65270 38246 ft 426 kts 253°
2026-04-27 20:16 52.95531 7.56075 38246 ft 425 kts 253°
2026-04-27 20:16 52.93521 7.46850 38239 ft 425 kts 253°
2026-04-27 20:17 52.91501 7.37613 38214 ft 425 kts 252°
2026-04-27 20:17 52.89821 7.29965 38220 ft 425 kts 252°
2026-04-27 20:18 52.87440 7.19180 38226 ft 425 kts 252°
2026-04-27 20:18 52.85413 7.10041 38222 ft 425 kts 252°
2026-04-27 20:19 52.83356 7.00809 38224 ft 425 kts 252°
2026-04-27 20:19 52.81311 6.91669 38224 ft 425 kts 252°
2026-04-27 20:20 52.79243 6.82467 38224 ft 425 kts 252°
2026-04-27 20:20 52.77181 6.73329 38215 ft 426 kts 252°
2026-04-27 20:21 52.75094 6.64123 38210 ft 426 kts 252°
2026-04-27 20:21 52.73007 6.54954 38219 ft 427 kts 252°
2026-04-27 20:22 52.70906 6.45770 38223 ft 426 kts 252°
2026-04-27 20:22 52.68819 6.36685 38218 ft 426 kts 252°
2026-04-27 20:23 52.66706 6.27527 38209 ft 427 kts 251°
2026-04-27 20:23 52.64590 6.18393 38213 ft 427 kts 251°
2026-04-27 20:24 52.62454 6.09208 38210 ft 427 kts 251°
2026-04-27 20:24 52.60331 6.00117 38197 ft 427 kts 251°
2026-04-27 20:25 52.58182 5.90962 38206 ft 429 kts 251°
2026-04-27 20:25 52.56021 5.81789 38212 ft 430 kts 251°
2026-04-27 20:26 52.53855 5.72640 38217 ft 430 kts 251°
2026-04-27 20:26 52.51677 5.63473 38197 ft 431 kts 251°
2026-04-27 20:27 52.49489 5.54298 38187 ft 431 kts 251°
2026-04-27 20:27 52.47295 5.45144 38212 ft 432 kts 251°
2026-04-27 20:28 52.45097 5.36021 38213 ft 431 kts 251°
2026-04-27 20:28 52.43249 5.28376 38209 ft 431 kts 250°
2026-04-27 20:29 52.40657 5.17690 38212 ft 432 kts 250°
2026-04-27 20:29 52.38415 5.08491 38233 ft 432 kts 250°
2026-04-27 20:30 52.36175 4.99332 38244 ft 432 kts 250°
2026-04-27 20:30 52.33928 4.90186 38224 ft 433 kts 250°
2026-04-27 20:31 52.31675 4.81063 38218 ft 433 kts 250°
2026-04-27 20:31 52.29399 4.71884 38224 ft 434 kts 251°
2026-04-27 20:32 52.27133 4.62772 38231 ft 434 kts 251°
2026-04-27 20:32 52.24865 4.53690 38234 ft 434 kts 251°
2026-04-27 20:33 52.22561 4.44511 38233 ft 432 kts 251°
2026-04-27 20:33 52.20298 4.35527 38217 ft 433 kts 251°
2026-04-27 20:34 52.17987 4.26390 38219 ft 434 kts 250°
2026-04-27 20:34 52.15684 4.17326 38212 ft 434 kts 250°
2026-04-27 20:35 52.13350 4.08166 38206 ft 433 kts 250°
2026-04-27 20:35 52.11020 3.99064 38196 ft 433 kts 250°
2026-04-27 20:36 52.08703 3.90050 38191 ft 434 kts 250°
2026-04-27 20:36 52.06684 3.80809 38195 ft 432 kts 256°
2026-04-27 20:37 52.05165 3.71399 38202 ft 432 kts 258°
2026-04-27 20:37 52.03684 3.61922 38006 ft 431 kts 258°
2026-04-27 20:38 52.02934 3.57150 37693 ft 428 kts 258°
2026-04-27 20:38 52.02208 3.52545 37296 ft 425 kts 258°
2026-04-27 20:38 52.01475 3.47919 36830 ft 422 kts 258°
2026-04-27 20:38 52.00746 3.43314 36332 ft 421 kts 258°
2026-04-27 20:39 52.00016 3.38717 35759 ft 421 kts 258°
2026-04-27 20:39 51.99280 3.34102 35190 ft 421 kts 257°
2026-04-27 20:39 51.98545 3.29510 34595 ft 421 kts 256°
2026-04-27 20:39 51.97818 3.24977 34013 ft 421 kts 256°
2026-04-27 20:40 51.97127 3.20390 33351 ft 422 kts 258°
2026-04-27 20:40 51.96576 3.15721 32636 ft 423 kts 261°
2026-04-27 20:40 51.96174 3.11031 31921 ft 424 kts 263°
2026-04-27 20:40 51.95860 3.06293 31189 ft 424 kts 263°
2026-04-27 20:41 51.95547 3.01516 30390 ft 425 kts 263°
2026-04-27 20:41 51.95231 2.96727 29564 ft 424 kts 263°
2026-04-27 20:41 51.94923 2.92047 29037 ft 417 kts 263°
2026-04-27 20:41 51.94617 2.87431 28544 ft 411 kts 263°
2026-04-27 20:42 51.94311 2.82838 28045 ft 404 kts 263°
2026-04-27 20:42 51.94015 2.78389 27548 ft 399 kts 263°
2026-04-27 20:42 51.93712 2.73904 27036 ft 393 kts 263°
2026-04-27 20:42 51.93419 2.69548 26525 ft 388 kts 263°
2026-04-27 20:43 51.93123 2.65190 26032 ft 383 kts 263°
2026-04-27 20:43 51.92833 2.60968 25544 ft 378 kts 263°
2026-04-27 20:43 51.92541 2.56731 25061 ft 373 kts 263°
2026-04-27 20:43 51.92255 2.52597 24596 ft 369 kts 263°
2026-04-27 20:44 51.91970 2.48500 24119 ft 365 kts 263°
2026-04-27 20:44 51.91689 2.44470 23631 ft 361 kts 264°
2026-04-27 20:44 51.91403 2.40420 23134 ft 358 kts 263°
2026-04-27 20:44 51.91120 2.36438 22642 ft 355 kts 263°
2026-04-27 20:45 51.90871 2.32488 22162 ft 352 kts 265°
2026-04-27 20:45 51.90741 2.28522 21963 ft 358 kts 267°
2026-04-27 20:45 51.90646 2.24413 21975 ft 362 kts 267°
2026-04-27 20:45 51.90554 2.20389 21978 ft 363 kts 267°
2026-04-27 20:46 51.90456 2.16261 21540 ft 364 kts 268°
2026-04-27 20:46 51.90361 2.12219 21047 ft 361 kts 268°
2026-04-27 20:46 51.90261 2.08135 20539 ft 360 kts 268°
2026-04-27 20:46 51.90162 2.04079 20041 ft 358 kts 268°
2026-04-27 20:47 51.90064 2.00105 19560 ft 356 kts 268°
2026-04-27 20:47 51.89963 1.96089 19072 ft 355 kts 268°
2026-04-27 20:47 51.89917 1.92085 18579 ft 353 kts 275°
2026-04-27 20:47 51.90473 1.88217 18094 ft 352 kts 292°
2026-04-27 20:48 51.91695 1.84822 18015 ft 353 kts 307°
2026-04-27 20:48 51.92741 1.82772 18044 ft 355 kts 309°
2026-04-27 20:48 51.94877 1.78664 18087 ft 356 kts 309°
2026-04-27 20:48 51.96466 1.75605 18120 ft 356 kts 309°
2026-04-27 20:49 51.98062 1.72527 18153 ft 357 kts 309°
2026-04-27 20:49 51.99665 1.69426 18183 ft 357 kts 309°
2026-04-27 20:49 52.01257 1.66337 18205 ft 357 kts 309°
2026-04-27 20:49 52.02850 1.63242 18227 ft 357 kts 309°
2026-04-27 20:50 52.04444 1.60141 18236 ft 357 kts 309°
2026-04-27 20:50 52.06037 1.57039 18239 ft 357 kts 309°
2026-04-27 20:50 52.07622 1.53946 18245 ft 357 kts 309°
2026-04-27 20:50 52.09206 1.50852 18247 ft 356 kts 309°
2026-04-27 20:51 52.10794 1.47743 18247 ft 356 kts 309°
2026-04-27 20:51 52.12387 1.44623 18247 ft 356 kts 309°
2026-04-27 20:51 52.13957 1.41546 18251 ft 356 kts 309°
2026-04-27 20:51 52.15380 1.38262 18244 ft 355 kts 299°
2026-04-27 20:52 52.16320 1.34552 18243 ft 355 kts 286°
2026-04-27 20:52 52.16790 1.30570 18248 ft 356 kts 279°
2026-04-27 20:52 52.17105 1.26571 18246 ft 356 kts 278°
2026-04-27 20:52 52.17405 1.22581 18247 ft 355 kts 278°
2026-04-27 20:53 52.17712 1.18548 18244 ft 355 kts 278°
2026-04-27 20:53 52.18022 1.14541 18241 ft 355 kts 278°
2026-04-27 20:53 52.18333 1.10540 18238 ft 356 kts 278°
2026-04-27 20:53 52.18640 1.06584 18115 ft 357 kts 278°
2026-04-27 20:54 52.19264 0.98485 16972 ft 357 kts 279°
2026-04-27 20:54 52.19566 0.94536 16483 ft 354 kts 279°
2026-04-27 20:54 52.19873 0.90520 15990 ft 352 kts 279°
2026-04-27 20:55 52.20173 0.86580 15509 ft 350 kts 279°
2026-04-27 20:55 52.20470 0.82652 15027 ft 347 kts 278°
2026-04-27 20:55 52.20760 0.78784 14799 ft 336 kts 278°
2026-04-27 20:55 52.21034 0.75091 14608 ft 325 kts 279°
2026-04-27 20:56 52.21301 0.71503 14462 ft 313 kts 279°
2026-04-27 20:56 52.21536 0.67995 14323 ft 303 kts 275°
2026-04-27 20:56 52.21389 0.64610 14210 ft 295 kts 262°
2026-04-27 20:56 52.20835 0.61403 14238 ft 297 kts 255°
2026-04-27 20:57 52.20160 0.58194 14259 ft 298 kts 254°
2026-04-27 20:57 52.19466 0.54974 14270 ft 298 kts 254°
2026-04-27 20:57 52.18783 0.51796 14272 ft 298 kts 255°
2026-04-27 20:57 52.18093 0.48573 14273 ft 299 kts 255°
2026-04-27 20:58 52.17411 0.45386 14274 ft 298 kts 255°
2026-04-27 20:58 52.16727 0.42187 14274 ft 298 kts 255°
2026-04-27 20:58 52.16049 0.39006 14272 ft 298 kts 255°
2026-04-27 20:58 52.15364 0.35791 14270 ft 298 kts 255°
2026-04-27 20:59 52.14682 0.32599 14269 ft 299 kts 254°
2026-04-27 20:59 52.14005 0.29435 14268 ft 299 kts 254°
2026-04-27 20:59 52.13314 0.26213 14271 ft 299 kts 254°
2026-04-27 20:59 52.12631 0.23027 14274 ft 300 kts 254°
2026-04-27 21:00 52.11941 0.19822 14275 ft 300 kts 254°
2026-04-27 21:00 52.11253 0.16625 14272 ft 300 kts 254°
2026-04-27 21:00 52.10552 0.13381 14261 ft 300 kts 254°
2026-04-27 21:00 52.09870 0.10219 14222 ft 299 kts 254°
2026-04-27 21:01 52.09179 0.07022 14211 ft 299 kts 254°
2026-04-27 21:01 52.08483 0.03808 13829 ft 302 kts 254°
2026-04-27 21:01 52.07786 0.00592 13419 ft 302 kts 254°
2026-04-27 21:01 52.07091 -0.02600 13035 ft 301 kts 254°
2026-04-27 21:02 52.06394 -0.05804 12648 ft 300 kts 254°
2026-04-27 21:02 52.05695 -0.09013 12269 ft 299 kts 254°
2026-04-27 21:02 52.05000 -0.12196 11890 ft 298 kts 254°
2026-04-27 21:02 52.04306 -0.15363 11511 ft 297 kts 254°
2026-04-27 21:03 52.03618 -0.18508 11136 ft 296 kts 254°
2026-04-27 21:03 52.02930 -0.21646 10762 ft 295 kts 254°
2026-04-27 21:03 52.02238 -0.24795 10391 ft 294 kts 254°
2026-04-27 21:03 52.01549 -0.27927 10026 ft 293 kts 254°
2026-04-27 21:04 52.00870 -0.31004 9661 ft 292 kts 254°
2026-04-27 21:04 52.00185 -0.34112 9288 ft 291 kts 254°
2026-04-27 21:04 51.99536 -0.37206 8911 ft 290 kts 257°
2026-04-27 21:04 51.98952 -0.40331 8549 ft 289 kts 257°
2026-04-27 21:05 51.98342 -0.43472 8154 ft 290 kts 252°
2026-04-27 21:05 51.97440 -0.46355 7873 ft 289 kts 244°
2026-04-27 21:05 51.96464 -0.49234 7448 ft 290 kts 245°
2026-04-27 21:05 51.95529 -0.52089 7119 ft 289 kts 246°
2026-04-27 21:06 51.94578 -0.54989 6735 ft 289 kts 245°
2026-04-27 21:06 51.93640 -0.57838 6447 ft 286 kts 245°
2026-04-27 21:06 51.92696 -0.60684 6062 ft 286 kts 245°
2026-04-27 21:06 51.91762 -0.63490 5739 ft 285 kts 245°
2026-04-27 21:07 51.90805 -0.66362 5228 ft 290 kts 244°
2026-04-27 21:07 51.89848 -0.69227 4955 ft 282 kts 244°
2026-04-27 21:07 51.88940 -0.71930 4933 ft 264 kts 244°
2026-04-27 21:07 51.88045 -0.74432 4911 ft 252 kts 235°
2026-04-27 21:08 51.86681 -0.76046 4891 ft 244 kts 194°
2026-04-27 21:08 51.85027 -0.76043 4699 ft 236 kts 159°
2026-04-27 21:08 51.83516 -0.75100 4441 ft 233 kts 152°
2026-04-27 21:08 51.82142 -0.73758 4123 ft 224 kts 125°
2026-04-27 21:09 51.81477 -0.71662 3861 ft 205 kts 90°
2026-04-27 21:09 51.81627 -0.69443 3681 ft 194 kts 68°
2026-04-27 21:09 51.82081 -0.67395 3639 ft 194 kts 65°
2026-04-27 21:09 51.82529 -0.65340 3567 ft 194 kts 68°
2026-04-27 21:10 51.82932 -0.63250 3463 ft 194 kts 69°
2026-04-27 21:10 51.83301 -0.61160 3293 ft 195 kts 70°
2026-04-27 21:10 51.83666 -0.59019 3056 ft 194 kts 70°
2026-04-27 21:10 51.84010 -0.56973 2831 ft 188 kts 70°
2026-04-27 21:11 51.84355 -0.54929 2530 ft 184 kts 70°
2026-04-27 21:11 51.84681 -0.53010 2277 ft 171 kts 70°
2026-04-27 21:11 51.84976 -0.51262 2165 ft 148 kts 68°
2026-04-27 21:11 51.85238 -0.49728 1998 ft 139 kts 69°
2026-04-27 21:12 51.85497 -0.48233 1791 ft 136 kts 69°
2026-04-27 21:12 51.85753 -0.46758 1605 ft 136 kts 69°
2026-04-27 21:12 51.86005 -0.45287 1422 ft 135 kts 68°
2026-04-27 21:12 51.86258 -0.43816 1239 ft 135 kts 69°
2026-04-27 21:13 51.86507 -0.42358 1057 ft 134 kts 68°
2026-04-27 21:13 51.86760 -0.40900 879 ft 134 kts 69°
2026-04-27 21:13 51.87017 -0.39446 669 ft 134 kts 70°
2026-04-27 21:13 51.87262 -0.38012 532 ft 130 kts 70°
2026-04-27 21:14 51.87423 -0.37127 535 ft 96 kts 68°
2026-04-27 21:14 51.87521 -0.36576 529 ft 42 kts 78°
2026-04-27 21:14 51.87580 -0.36170 522 ft 30 kts 73°
2026-04-27 21:14 51.87612 -0.35984 517 ft 8 kts 73°
2026-04-27 21:15 51.87664 -0.35915 513 ft 8 kts 354°
2026-04-27 21:15 51.87705 -0.35933 512 ft 8 kts 342°
2026-04-27 21:15 51.87765 -0.35980 510 ft 10 kts 313°
2026-04-27 21:15 51.87780 -0.36089 511 ft 9 kts 256°
2026-04-27 21:16 51.87764 -0.36193 513 ft 9 kts 255°
2026-04-27 21:16 51.87746 -0.36300 514 ft 9 kts 255°
2026-04-27 21:16 51.87730 -0.36391 517 ft 7 kts 252°
2026-04-27 21:16 51.87716 -0.36473 520 ft 8 kts 254°
2026-04-27 21:17 51.87702 -0.36561 522 ft 7 kts 255°
2026-04-27 21:17 51.87687 -0.36651 522 ft 8 kts 253°
2026-04-27 21:17 51.87671 -0.36738 524 ft 7 kts 252°
2026-04-27 21:17 51.87667 -0.36807 526 ft 5 kts 291°
2026-04-27 21:18 51.87694 -0.36854 526 ft 6 kts 332°
2026-04-27 21:18 51.87756 -0.36890 524 ft 12 kts 341°
2026-04-27 21:18 51.87851 -0.36940 521 ft 15 kts 340°
2026-04-27 21:18 51.87946 -0.36993 521 ft 9 kts 342°
2026-04-27 21:19 51.88005 -0.37055 520 ft 10 kts 305°
2026-04-27 21:19 51.88041 -0.37166 520 ft 11 kts 284°
2026-04-27 21:19 51.88026 -0.37284 521 ft 10 kts 250°
2026-04-27 21:20 51.88015 -0.37394 524 ft 2 kts 313°
2026-04-27 21:20 51.88036 -0.37413 524 ft 5 kts 340°
2026-04-27 21:20 51.88057 -0.37424 525 ft 1 kts 341°
2026-04-27 21:20 51.88058 -0.37424 525 ft 0 kts 341°